Total_Precipitation_Accumulation
1.03 1.15 1.15 1.22 1.19 1.18 1.20 1.19 1.13 1.09 1.05 1.03 1.03 1.01 0.97 1.00 1.06 1.10 1.05 1.04 0.99 1.02 1.02 1.05 1.06 1.15 1.22 1.22 1.28 1.30 1.34 1.49 1.40 1.15 1.21 1.32 1.31 1.14 1.07 1.05 1.03 1.01 0.97
0.81 0.85 0.91 0.99 1.03 1.00 0.99 1.08 1.15 1.10 1.03 1.05 1.06 1.00 0.90 0.95 1.08 1.12 1.06 1.08 1.07 1.02 1.05 1.15 1.11 1.14 1.25 1.31 1.45 1.43 1.48 1.69 1.68 1.47 1.43 1.48 1.40 1.30 1.20 1.11 0.98 0.92 0.92
0.67 0.72 0.80 0.86 0.87 0.86 0.89 0.99 1.08 1.12 1.13 1.09 1.06 0.98 0.93 0.93 0.98 1.03 1.09 1.17 1.19 1.20 1.23 1.27 1.27 1.38 1.37 1.41 1.48 1.47 1.53 1.73 1.87 1.74 1.66 1.74 1.72 1.50 1.37 1.20 1.07 1.07 0.93
0.68 0.81 0.92 0.96 0.95 0.95 0.94 0.99 1.07 1.16 1.18 1.21 1.21 1.22 1.21 1.13 1.10 1.11 1.16 1.19 1.22 1.26 1.35 1.37 1.38 1.46 1.52 1.59 1.61 1.71 1.82 1.98 2.11 2.03 1.96 2.03 2.04 1.89 1.70 1.40 1.30 1.23 1.11
0.84 0.97 1.14 1.28 1.30 1.20 1.16 1.20 1.27 1.34 1.40 1.54 1.53 1.47 1.44 1.37 1.23 1.27 1.28 1.24 1.33 1.27 1.32 1.36 1.33 1.38 1.45 1.57 1.59 1.75 1.95 2.14 2.30 2.33 2.32 2.46 2.39 2.21 1.94 1.60 1.51 1.42 1.29
0.75 0.85 1.01 1.19 1.28 1.25 1.23 1.33 1.44 1.50 1.62 1.68 1.62 1.57 1.55 1.34 1.41 1.42 1.37 1.43 1.47 1.44 1.44 1.46 1.39 1.34 1.33 1.38 1.46 1.58 1.73 1.92 2.17 2.37 2.46 2.52 2.54 2.39 2.17 1.91 1.58 1.34 1.23
0.84 0.95 1.02 1.15 1.24 1.28 1.29 1.39 1.49 1.52 1.53 1.58 1.56 1.50 1.42 1.39 1.35 1.24 1.24 1.26 1.37 1.42 1.43 1.44 1.29 1.16 1.20 1.15 1.23 1.28 1.31 1.41 1.56 1.80 2.02 2.09 2.24 2.31 2.19 1.89 1.61 1.38 1.21
0.85 0.94 1.00 1.11 1.23 1.35 1.50 1.60 1.66 1.71 1.71 1.69 1.61 1.55 1.54 1.45 1.30 1.15 1.15 1.11 1.19 1.23 1.25 1.28 1.27 1.16 1.12 1.15 1.15 1.11 1.03 1.04 1.11 1.16 1.31 1.55 1.76 2.00 2.06 1.96 1.87 1.61 1.33
0.98 1.06 1.13 1.21 1.34 1.43 1.51 1.64 1.74 1.82 1.79 1.77 1.75 1.76 1.77 1.73 1.58 1.31 1.22 1.19 1.28 1.28 1.27 1.27 1.28 1.18 1.18 1.07 1.05 1.04 0.98 0.94 0.93 0.98 1.06 1.24 1.48 1.66 1.86 1.87 1.80 1.69 1.46
1.13 1.16 1.21 1.37 1.45 1.46 1.47 1.55 1.59 1.64 1.67 1.69 1.66 1.71 1.71 1.74 1.75 1.41 1.20 1.09 1.18 1.22 1.28 1.29 1.29 1.17 1.18 1.09 1.10 1.13 1.05 0.96 0.94 0.91 0.95 1.02 1.10 1.34 1.59 1.60 1.56 1.56 1.44
1.20 1.20 1.26 1.35 1.50 1.53 1.56 1.53 1.47 1.47 1.51 1.57 1.59 1.63 1.67 1.69 1.64 1.29 1.14 1.11 1.20 1.25 1.22 1.19 1.23 1.19 1.05 0.96 0.92 0.94 0.98 0.96 0.98 0.98 0.96 1.00 1.07 1.17 1.35 1.44 1.48 1.42 1.35
1.10 1.13 1.19 1.22 1.22 1.27 1.42 1.47 1.46 1.45 1.47 1.52 1.60 1.60 1.59 1.57 1.46 1.20 0.96 0.94 1.04 1.10 1.11 1.11 1.13 1.09 0.94 0.83 0.74 0.73 0.75 0.73 0.80 0.90 0.93 0.92 0.96 1.02 1.16 1.39 1.53 1.50 1.34
1.11 1.18 1.22 1.24 1.27 1.30 1.34 1.37 1.34 1.29 1.23 1.23 1.34 1.42 1.43 1.45 1.39 1.15 0.93 0.84 0.87 0.90 0.99 1.16 1.15 1.02 0.94 0.87 0.80 0.71 0.65 0.61 0.67 0.76 0.75 0.76 0.79 0.86 1.02 1.32 1.57 1.71 1.59
1.13 1.12 1.13 1.18 1.18 1.21 1.31 1.29 1.23 1.17 1.10 1.08 1.24 1.36 1.44 1.45 1.38 1.21 1.05 0.96 0.95 0.95 1.00 1.14 1.19 1.16 1.09 1.00 0.90 0.73 0.59 0.57 0.60 0.66 0.71 0.73 0.81 0.90 1.01 1.09 1.33 1.54 1.61
1.04 1.00 1.07 1.11 1.06 1.01 1.11 1.18 1.08 1.06 1.09 1.11 1.27 1.49 1.53 1.45 1.33 1.16 1.03 1.03 1.03 1.09 1.12 1.26 1.38 1.39 1.36 1.25 1.08 0.92 0.79 0.75 0.72 0.71 0.80 0.83 0.87 0.89 0.92 0.96 1.11 1.27 1.29
1.12 1.06 1.00 0.98 0.97 0.99 1.04 1.06 1.04 0.91 0.90 0.88 0.95 1.07 1.20 1.16 1.05 0.94 0.87 0.86 0.84 0.86 0.92 1.13 1.40 1.47 1.48 1.45 1.34 1.16 1.01 0.93 0.89 0.87 0.89 0.90 0.90 0.93 0.96 1.01 1.08 1.19 1.19
1.13 1.09 0.99 0.88 0.83 0.84 0.88 0.94 0.97 0.90 0.72 0.66 0.66 0.66 0.69 0.71 0.70 0.75 0.77 0.71 0.65 0.60 0.64 0.85 1.16 1.37 1.45 1.48 1.41 1.23 1.06 1.01 1.03 0.99 0.96 0.94 0.93 0.94 1.01 1.05 1.08 1.14 1.19
0.92 0.94 0.88 0.81 0.78 0.75 0.75 0.77 0.78 0.85 0.86 0.76 0.64 0.57 0.56 0.55 0.58 0.74 0.83 0.66 0.53 0.49 0.51 0.68 0.94 1.21 1.31 1.37 1.36 1.29 1.18 1.13 1.12 1.08 1.04 1.01 1.00 1.00 1.00 1.03 1.07 1.10 1.14
0.87 0.86 0.78 0.76 0.77 0.79 0.80 0.77 0.74 0.78 0.88 0.95 0.89 0.68 0.62 0.60 0.63 0.84 0.92 0.67 0.58 0.63 0.64 0.70 0.86 1.09 1.25 1.35 1.36 1.33 1.28 1.24 1.23 1.22 1.18 1.15 1.11 1.14 1.10 1.04 1.08 1.17 1.20
0.80 0.87 0.80 0.73 0.73 0.77 0.78 0.76 0.79 0.88 0.97 1.09 1.10 0.86 0.69 0.65 0.68 0.94 1.04 0.89 0.84 0.86 0.84 0.85 0.91 1.05 1.21 1.33 1.36 1.33 1.36 1.34 1.35 1.32 1.28 1.24 1.19 1.19 1.20 1.18 1.19 1.22 1.18
0.73 0.74 0.75 0.68 0.72 0.76 0.78 0.80 0.83 0.94 1.05 1.12 1.07 0.85 0.72 0.67 0.78 1.00 1.17 1.08 1.00 1.01 0.99 0.95 0.98 1.08 1.18 1.29 1.31 1.29 1.30 1.35 1.34 1.31 1.28 1.26 1.22 1.18 1.18 1.21 1.19 1.23 1.21
0.69 0.69 0.69 0.69 0.71 0.72 0.74 0.81 0.89 1.02 1.12 1.16 1.03 0.86 0.82 0.79 0.88 1.03 1.09 1.05 1.01 0.99 0.97 0.98 1.03 1.12 1.17 1.20 1.22 1.24 1.27 1.29 1.28 1.27 1.29 1.29 1.27 1.23 1.24 1.21 1.19 1.21 1.22
0.65 0.67 0.69 0.72 0.73 0.69 0.70 0.75 0.80 0.89 1.02 1.07 0.97 0.90 0.90 0.97 0.98 1.02 1.07 1.07 1.03 1.00 0.95 0.97 1.01 1.02 1.03 1.04 1.02 1.06 1.11 1.12 1.10 1.13 1.20 1.25 1.27 1.24 1.21 1.16 1.13 1.14 1.17
0.46 0.46 0.46 0.49 0.50 0.52 0.56 0.60 0.62 0.67 0.79 0.86 0.83 0.86 0.89 0.92 0.90 0.93 0.97 0.98 0.97 0.97 0.94 0.89 0.88 0.86 0.86 0.88 0.88 0.89 0.90 0.93 0.94 0.97 1.02 1.10 1.15 1.18 1.17 1.12 1.11 1.12 1.14
0.40 0.40 0.40 0.43 0.43 0.44 0.48 0.53 0.59 0.65 0.70 0.74 0.78 0.82 0.86 0.86 0.87 0.90 0.89 0.87 0.87 0.87 0.82 0.79 0.80 0.81 0.80 0.76 0.72 0.68 0.70 0.69 0.72 0.80 0.85 0.95 1.00 1.05 1.07 1.05 1.07 1.11 1.11
0.36 0.40 0.43 0.46 0.48 0.49 0.52 0.56 0.60 0.62 0.65 0.68 0.74 0.81 0.84 0.84 0.84 0.84 0.80 0.78 0.80 0.79 0.74 0.72 0.71 0.72 0.72 0.67 0.62 0.59 0.56 0.52 0.55 0.63 0.67 0.77 0.88 0.93 0.97 1.01 1.00 1.04 1.04